• MPC Preparation (Info)

  • MPEC 2024-D93 : 2024 DK1

    The following Minor Planet Electronic Circular may be linked-to from your own Web pages, but must not otherwise be redistributed electronically.

    A form allowing access to any MPEC is at the bottom of this page.


    Read MPEC 2024-D92 Read MPEC 2024-D94


    M.P.E.C. 2024-D93                             Issued 2024 February 21, 01:42 UT
    
         The Minor Planet Electronic Circulars contain information on unusual
             minor planets, routine data on comets and natural satellites,
             and occasional editorial announcements.  They are published
        on behalf of Division F of the International Astronomical Union by the
              Minor Planet Center, Smithsonian Astrophysical Observatory,
                              Cambridge, MA 02138, U.S.A.
    			  
                 Prepared using the Tamkin Foundation Computer Network
    
                                  MPC@CFA.HARVARD.EDU
                URL https://www.minorplanetcenter.net/    ISSN 1523-6714
    
                                    2024 DK1                                 
    
    
    Observations:
         K24D01K*1C2024 02 19.47230213 21 15.556+17 26 29.15         20.10GVED093G96
         K24D01K 1C2024 02 19.47743213 21 09.864+17 24 43.88         19.93GVED093G96
         K24D01K 1C2024 02 19.48769113 20 58.416+17 21 10.12         20.24GVED093G96
         K24D01K  C2024 02 19.51632013 20 25.936+17 11 06.83         20.4 GVED093H01
         K24D01K KC2024 02 19.51928313 20 23.935+17 10 18.55         20.56GVED093I52
         K24D01K  C2024 02 19.52056713 20 21.353+17 09 38.83         20.0 GVED093H01
         K24D01K KC2024 02 19.52121413 20 21.811+17 09 38.77         20.55GVED093I52
         K24D01K KC2024 02 19.52313913 20 19.748+17 08 59.21         20.52GVED093I52
         K24D01K KC2024 02 19.52506713 20 17.646+17 08 19.57         20.28GVED093I52
         K24D01K  C2024 02 19.53214513 20 08.978+17 05 40.43         20.4 GVED093H01
         K24D01K 1C2024 02 19.63374113 18 38.105+16 33 33.45         20.69GVED093T12
         K24D01K 1C2024 02 19.63519113 18 36.563+16 33 04.51         20.72GVED093T12
         K24D01K KC2024 02 20.33382313 09 30.402+13 01 50.38         20.92GVED093I52
         K24D01K KC2024 02 20.33525913 09 29.218+13 01 27.12         20.20GVED093I52
         K24D01K KC2024 02 20.33669813 09 28.001+13 01 03.94         20.75GVED093I52
         K24D01K KC2024 02 20.33814113 09 26.770+13 00 39.85         20.68GVED093I52
         K24D01K KC2024 02 20.39326613 08 32.18 +12 45 16.3          20.4 GVED093H21
         K24D01K KC2024 02 20.39519513 08 30.56 +12 44 45.4          20.2 GVED093H21
         K24D01K KC2024 02 20.39712413 08 28.92 +12 44 14.4          20.2 GVED093H21
         K24D01K KC2024 02 20.39905313 08 27.35 +12 43 42.7          20.4 GVED093H21
         K24D01K KC2024 02 20.40143213 08 25.34 +12 43 04.7          20.9 GVED093H21
    
    Observer details:
    G96 Mt. Lemmon Survey.  Observers T. Beuden, G. J. Leonard.  Measurers T.
        Beuden, V. F. Carvajal, D. Fay, J. B. Fazekas, D. C. Fuls, A. R. Gibbs, A.
        D. Grauer, H. Groeller, J. K. Hogan, R. A. Kowalski, S. M. Larson, G. J.
        Leonard, D. Rankin, R. L. Seaman, F. C. Shelly, K. W. Wierzchos.  1.5-m
        reflector + 10K CCD.
    H01 Magdalena Ridge Observatory, Socorro.  Observers W. H. Ryan, E. V. Ryan.
        Measurer W. H. Ryan.  2.4-m f/8.9 Ritchey-Chretien + CCD.
    H21 Astronomical Research Observatory, Westfield.  Observer R. Holmes.
        Measurers T. Linder, R. Holmes, L. Horn.  0.76-m f/3.0 astrograph + CCD.
    I52 Steward Observatory, Mt. Lemmon Station.  Observers J. B. Fazekas, R. A.
        Kowalski.  Measurers E. C. Beshore, D. Fay, J. B. Fazekas, D. C. Fuls, A.
        R. Gibbs, A. D. Grauer, H. Groeller, J. K. Hogan, R. A. Kowalski, S. M.
        Larson, G. J. Leonard, D. Rankin, R. L. Seaman, F. C. Shelly, K. W.
        Wierzchos.  1.0-m prime focus + CCD.
    T12 University of Hawaii 88-inch telescope, Maunakea.  Observer Y.
        Ramanjooloo.  Measurers R. Weryk, Y. Ramanjooloo, J. Fairlamb, R.
        Wainscoat.  2.24-m f/10.1 reflector + CCD.
    
    Orbital elements:
    2024 DK1                                                 Earth MOID = 0.0130 AU
    Epoch 2024 Mar. 31.0 TT = JDT 2460400.5                 Veres                   
    M  37.91723              (2000.0)            P               Q                  
    n   0.52582053     Peri.  133.13689     -0.38237320     -0.92378407             
    a   1.5202360      Node   339.31735     +0.83016715     -0.33379097             
    e   0.3790417      Incl.    3.30147     +0.40572558     -0.18763414             
    P   1.87           H   27.24          G   0.15           U   7                  
    Residuals in seconds of arc
    240219 G96  0.1-  0.0     240219 I52  0.1+  0.1-    240220 I52  0.1+  0.3+
    240219 G96  0.1+  0.8+    240219 I52  0.2-  0.0     240220 I52  0.2-  0.6-
    240219 G96 (1.0-  0.8-)   240219 H01  0.0   0.2+    240220 H21  0.0   0.4-
    240219 H01  0.1-  0.1+    240219 T12  0.1+  0.1-    240220 H21  0.0   0.1-
    240219 I52  0.4+  0.2-    240219 T12  0.1+  0.0     240220 H21  0.4-  0.1+
    240219 H01  0.2-  0.2-    240220 I52  0.1-  0.4+    240220 H21  0.3+  0.4-
    240219 I52  0.1-  0.2-    240220 I52  0.2+  0.3+    240220 H21  0.0   0.1+
    
    Ephemeris:
    2024 DK1                 a,e,i = 1.52, 0.38, 3                   q = 0.9440
    Date    TT    R. A. (2000) Decl.     Delta      r    Elong.  Phase     V
    2024 01 22    23 29 24.5 +21 04 30   0.09603 0.9445    63.1   111.7    26.3
    ...
    2024 02 06    23 01 06.1 +32 43 44   0.03901 0.9641    54.9   123.2    25.2
    ...
    2024 02 14    18 46 18.6 +58 12 41   0.01475 0.9851    80.5    98.6    21.6
    ...
    2024 02 20    13 13 34.4 +14 39 38   0.02295 1.0050   135.3    43.8    20.7
    2024 02 21    13 01 55.1 +10 17 05   0.02621 1.0086   138.8    40.2    20.9
    2024 02 22    12 53 02.7 +06 52 49   0.02964 1.0123   141.5    37.4    21.1
    ...
    2024 02 28    12 25 16.4 -03 28 27   0.05201 1.0363   151.4    27.3    22.1
    ...
    2024 03 07    12 09 37.3 -07 58 47   0.08434 1.0721   160.2    18.3    23.0
    ...
    2024 03 22    11 55 52.8 -09 52 40   0.1535  1.1480   170.4     8.3    24.0
    
    M. P. C. Staff               (C) Copyright 2024 MPC           M.P.E.C. 2024-D93
    


    Read MPEC 2024-D92 Read MPEC 2024-D94


    MPEC number:

    Enter an MPEC number in one of the following forms:

    • 1997-B01 (the full form)
    • J97B01 (the packed version of the full form)
    • B01 (the abbreviated form)